This is the latest recevied weather packets stored in our database for station/object KJ4UBX-11. If no packets are shown the sender has not sent any weather packets the latest 10 day(s).
| Time | Temp. | Humidity | Pressure | Rain* | Wind** | Luminosity | Snow |
|---|---|---|---|---|---|---|---|
| 1777654880 | 21.11° C | 36% | 1006.2 hPa | - | - | - | - |
| 1777654298 | 22.78° C | 39% | 1006.2 hPa | - | - | - | - |
| 1777653714 | 22.22° C | 37% | 1006.2 hPa | - | - | - | - |
| 1777653133 | 22.78° C | 32% | 1006.4 hPa | - | - | - | - |
| 1777652550 | 23.33° C | 32% | 1006.5 hPa | - | - | - | - |
| 1777651967 | 23.89° C | 33% | 1006.5 hPa | - | - | - | - |
| 1777651386 | 25.56° C | 31% | 1006.6 hPa | - | - | - | - |
| 1777650804 | 26.11° C | 24% | 1006.6 hPa | - | - | - | - |
| 1777650236 | 32.78° C | 20% | 1006.6 hPa | - | - | - | - |
| 1777649655 | 35° C | 20% | 1006.8 hPa | - | - | - | - |
| 1777649065 | 32.22° C | 20% | 1006.9 hPa | - | - | - | - |
| 1777648475 | 33.33° C | 21% | 1006.9 hPa | - | - | - | - |
| 1777647895 | 32.22° C | 20% | 1006.8 hPa | - | - | - | - |
| 1777647306 | 28.33° C | 23% | 1006.8 hPa | - | - | - | - |
| 1777646728 | 28.89° C | 26% | 1006.9 hPa | - | - | - | - |
| 1777646141 | 27.78° C | 25% | 1007 hPa | - | - | - | - |
| 1777645561 | 29.44° C | 24% | 1007 hPa | - | - | - | - |
| 1777644987 | 33.89° C | 22% | 1007.1 hPa | - | - | - | - |
| 1777644402 | 32.22° C | 23% | 1007 hPa | - | - | - | - |
| 1777643819 | 33.89° C | 20% | 1007 hPa | - | - | - | - |
| 1777643232 | 31.67° C | 23% | 1007 hPa | - | - | - | - |
| 1777642647 | 30.56° C | 24% | 1007 hPa | - | - | - | - |
| 1777642061 | 28.89° C | 27% | 1007 hPa | - | - | - | - |
| 1777641473 | 26.67° C | 30% | 1007 hPa | - | - | - | - |
| 1777640890 | 24.44° C | 30% | 1006.8 hPa | - | - | - | - |
* Rain since midnight (hover to see other rain measurements)
** Current wind speed in m/s (hover to see current wind gust speed)